2024-194D

Last updated on Thu Oct 31 2024 00:02:05 GMT+0000 (Coordinated Universal Time)

1 61686U 24194D 24304.41494671 -.00002403 76020-5 00000+0 0 9995 2 61686 41.4666 337.8603 0112305 129.0450 320.8564 16.01930102 44
UTC large
Height (km)
Speed (km/s)
/
Latitude / Longitude
Inclination (degrees)
Orbital Period (minutes)
Azimuth
Elevation
Range (km)
Doppler Factor

Next 0 passes for location: London (51.5072 / 0.1276)

Sorry there are no passes over London.